[[{"header":{"parameterUnit":"m.s-1","parameterCategory":1,"la1":30.2991,"la2":30.254,"lo1":-89.0895,"lo2":-89.0444,"dy":0.0017,"dx":0.0017,"nx":28,"ny":28,"refTime":"2025-12-12T03:00:00:Z","depth":0,"parameterNumber":2,"parameterNumberName":"U-component_of_WINDS"},"data":[0,0,0,0,0,0,0,0,0,0,0,0,0,0,0,0,0,0,0,0,0,0,0,0,0,0,0,0,0,0,0,0,0,0,0,0,0,0,0,0,0,0,0,0,0,0,0,0,0,0,0,0,0,0,0,0,0,0,0.8089,0.8091,0,0.8196,0.8198,0.8199,0.8217,0.8216,0.8215,0.8215,0.8323,0.8327,0.833,0,0,0,0,0,0,0,0,0,0,0,0,0,0.7898,0.7901,0.8089,0.8091,0.8092,0.8196,0.8198,0.8199,0.8217,0.8216,0.8215,0.8214,0.8322,0.8326,0.8331,0,0,0,0,0,0,0,0,0,0,0,0,0,0.799,0.7902,0.8089,0.8114,0.8117,0.8196,0.8198,0.82,0.8218,0.8216,0.8215,0.8214,0.832,0.8326,0.8331,0.8393,0,0,0.8348,0.8351,0,0,0,0,0,0,0,0,0.7985,0.7997,0.8109,0.8112,0.8116,0.8192,0.817,0.8264,0.8218,0.8179,0.8214,0.8213,0.828,0.8289,0.8312,0.8398,0.8403,0.8349,0.8352,0.8355,0.8356,0,0,0,0,0,0,0,0.7979,0.7993,0.8132,0.811,0.8115,0.8118,0.813,0.8188,0.8236,0.8183,0.8184,0.8197,0.8282,0.8307,0.8315,0.8404,0.8349,0.8354,0.8357,0.8359,0.8543,0.8545,0,0,0,0,0,0,0.7968,0.7987,0.8128,0.8135,0.8046,0.8123,0.8136,0.8169,0.8236,0.8244,0.8198,0.8197,0.8298,0.8308,0.8319,0.8394,0.8355,0.836,0.8363,0.8542,0.8543,0.8545,0,0,0,0,0,0,0.7964,0.7981,0.8124,0.8062,0.808,0.8128,0.8165,0.8172,0.8197,0.8247,0.8256,0.8214,0.8297,0.8311,0.8374,0.8398,0.8362,0.8368,0.854,0.8542,0.8544,0.8544,0,0,0,0,0,0,0.7958,0.7979,0.8004,0.8062,0.8083,0.8178,0.8166,0.8175,0.8206,0.8207,0.8265,0.8273,0.8297,0.8365,0.8379,0.8405,0.8372,0.8538,0.8541,0.8544,0.8543,0.8546,0.855,0,0,0,0,0,0.7952,0.8,0.8005,0.8022,0.8116,0.8179,0.8192,0.8219,0.8208,0.8233,0.8265,0.8271,0.8393,0.8372,0.8388,0.8415,0.8536,0.854,0.8543,0.8541,0.8546,0.855,0,0,0,0,0,0,0.7943,0.8008,0.8014,0.8083,0.8126,0.8182,0.8214,0.8223,0.8269,0.8268,0.8299,0.8312,0.8373,0.84,0.8376,0.8477,0.8464,0.847,0.8456,0.8461,0.8465,0.8457,0.8377,0,0,0,0,0,0.795,0.7997,0.8051,0.8106,0.8127,0.8167,0.8196,0.8213,0.8258,0.8276,0.8313,0.8356,0.8403,0.8434,0.8481,0.8547,0.8558,0.8573,0.8577,0.8579,0.8585,0.8619,0.8625,0.8556,0.8556,0.8556,0,0,0.7963,0.8004,0.8032,0.8105,0.814,0.8187,0.8182,0.8233,0.8267,0.8284,0.8345,0.8373,0.8423,0.8487,0.8517,0.8511,0.8606,0.8584,0.8586,0.8589,0.8623,0.863,0.8635,0.8559,0.8558,0.8558,0,0,0.8011,0.8048,0.8097,0.8131,0.8184,0.821,0.8221,0.8277,0.8296,0.8358,0.837,0.8411,0.8494,0.8528,0.8556,0.8614,0.8621,0.8629,0.8647,0.868,0.8686,0.8691,0.8709,0.8716,0.8634,0.8634,0.8634,0,0.8021,0.8093,0.8121,0.817,0.8201,0.8218,0.8266,0.8299,0.8364,0.8384,0.8378,0.8479,0.8514,0.8585,0.8599,0.8622,0.8635,0.8622,0.8683,0.8688,0.8693,0.8711,0.8718,0.8634,0.8634,0.8634,0.8634,0,0.8101,0.815,0.8184,0.8245,0.828,0.8329,0.8363,0.8395,0.8408,0.8434,0.8495,0.8538,0.8592,0.861,0.8625,0.8683,0.8678,0.8677,0.8664,0.8699,0.8717,0.8724,0.8635,0.8635,0.8634,0.8634,0,0,0.8148,0.8223,0.8234,0.8261,0.832,0.8358,0.8407,0.846,0.8485,0.8529,0.8569,0.8637,0.8636,0.8668,0.8686,0.8715,0.8755,0.871,0.8711,0.8715,0.8819,0.8819,0.8826,0.876,0.8762,0.8763,0.8814,0,0.8201,0.8289,0.8314,0.8388,0.8432,0.8448,0.849,0.8529,0.8554,0.8595,0.8623,0.867,0.8665,0.8684,0.8714,0.8744,0.8776,0.8741,0.8797,0.8798,0.8782,0.8836,0.8836,0.8883,0.8822,0.8823,0.8824,0,0.8276,0.832,0.8397,0.8447,0.8467,0.8505,0.8554,0.8593,0.8637,0.8654,0.8688,0.8703,0.8752,0.8737,0.8805,0.878,0.8804,0.8822,0.8825,0.883,0.8812,0.8841,0.8898,0.8905,0.8835,0.8834,0.8833,0,0.8299,0.8378,0.8434,0.8457,0.8518,0.8543,0.857,0.8613,0.8642,0.8685,0.8704,0.8752,0.8778,0.8815,0.8841,0.8828,0.8906,0.8894,0.8919,0.8918,0.8934,0.8933,0.8994,0.8952,0.8952,0.8952,0.8952,0,0.8356,0.8402,0.8445,0.848,0.8531,0.856,0.861,0.8637,0.8674,0.8713,0.8729,0.8765,0.8799,0.8839,0.886,0.8911,0.8923,0.8937,0.8941,0.8934,0.8932,0.895,0.8947,0.8954,0.8953,0.8953,0.8953,0,0.8391,0.8422,0.8484,0.8535,0.8549,0.8585,0.8628,0.8661,0.8686,0.8735,0.8748,0.8787,0.8835,0.8865,0.8926,0.894,0.8996,0.9,0.8981,0.8983,0.9006,0.9002,0.908,0.9091,0.9042,0.9043,0.9043,0,0.8424,0.846,0.8515,0.8542,0.8568,0.8612,0.8641,0.867,0.87,0.8752,0.8778,0.8826,0.8867,0.8941,0.8975,0.9021,0.9025,0.9049,0.9032,0.9023,0.9024,0.9021,0.9023,0.9052,0.9052,0.9053,0.9053,0,0.8479,0.8492,0.8535,0.8582,0.8617,0.8655,0.8694,0.8715,0.875,0.8782,0.8831,0.8862,0.8923,0.897,0.9019,0.9045,0.9054,0.9058,0.9066,0.9058,0.9045,0.9051,0.8986,0.9056,0.9056,0.9055,0.9055,0.9055,0.8513,0.8545,0.8588,0.8634,0.8665,0.87,0.8733,0.8762,0.8803,0.8855,0.8869,0.8919,0.896,0.9026,0.9053,0.9091,0.9088,0.91,0.9103,0.9105,0.9104,0.9039,0.91,0.91,0.91,0.91,0.91,0,0.8568,0.8595,0.8637,0.869,0.8726,0.8731,0.8774,0.8803,0.8847,0.8884,0.8923,0.8977,0.9023,0.9059,0.9105,0.9129,0.9134,0.914,0.9138,0.9143,0.9106,0.9093,0.9135,0.9135,0.9135,0.9135,0.9135,0.9135,0.86,0.8653,0.867,0.8738,0.8766,0.8815,0.8838,0.887,0.89,0.896,0.8997,0.9021,0.9057,0.9106,0.9147,0.9156,0.9172,0.9176,0.9186,0.915,0.9146,0.9143,0.9131,0.918,0.918,0.922,0.9221,0.9221]},{"header":{"parameterUnit":"m.s-1","parameterCategory":1,"la1":30.2991,"la2":30.254,"lo1":-89.0895,"lo2":-89.0444,"dy":0.0017,"dx":0.0017,"nx":28,"ny":28,"refTime":"2025-12-12T03:00:00:Z","depth":0,"parameterNumber":3,"parameterNumberName":"V-component_of_WINDS"},"data":[0,0,0,0,0,0,0,0,0,0,0,0,0,0,0,0,0,0,0,0,0,0,0,0,0,0,0,0,0,0,0,0,0,0,0,0,0,0,0,0,0,0,0,0,0,0,0,0,0,0,0,0,0,0,0,0,0,0,2.6537,2.6538,0,2.6661,2.6662,2.6663,2.661,2.6607,2.6604,2.6601,2.6733,2.6739,2.6746,0,0,0,0,0,0,0,0,0,0,0,0,0,2.6258,2.6264,2.6537,2.6538,2.654,2.666,2.6662,2.6664,2.6611,2.6607,2.6604,2.66,2.6731,2.6739,2.6746,0,0,0,0,0,0,0,0,0,0,0,0,0,2.6381,2.6266,2.6537,2.6528,2.6528,2.666,2.6662,2.6664,2.6612,2.6607,2.6603,2.6598,2.6729,2.6738,2.6747,2.6896,0,0,2.6776,2.678,0,0,0,0,0,0,0,0,2.6374,2.6391,2.6528,2.6529,2.6529,2.6615,2.6612,2.6742,2.6613,2.658,2.6601,2.6596,2.6698,2.671,2.6743,2.6902,2.6908,2.6777,2.6783,2.6787,2.679,0,0,0,0,0,0,0,2.6365,2.6385,2.6586,2.653,2.6531,2.6519,2.6531,2.6637,2.6663,2.6583,2.6579,2.6594,2.6698,2.6734,2.6746,2.691,2.6777,2.6785,2.6791,2.6795,2.7196,2.7201,0,0,0,0,0,0,2.6356,2.6379,2.6582,2.659,2.6439,2.6528,2.6541,2.6592,2.6662,2.6668,2.6598,2.6591,2.672,2.6735,2.675,2.6928,2.6787,2.6796,2.6801,2.7191,2.7197,2.7203,0,0,0,0,0,0,2.635,2.6375,2.6577,2.6483,2.6508,2.6537,2.6595,2.6597,2.6633,2.6673,2.6678,2.663,2.6717,2.6737,2.686,2.6932,2.68,2.6809,2.7185,2.7193,2.72,2.7286,0,0,0,0,0,0,2.6343,2.6373,2.6429,2.6485,2.6513,2.6684,2.6599,2.6603,2.6649,2.6642,2.6705,2.6711,2.6715,2.6846,2.6869,2.6943,2.6816,2.7179,2.7189,2.7197,2.7277,2.7295,2.7311,0,0,0,0,0,2.6333,2.645,2.6433,2.6457,2.6584,2.6688,2.6704,2.6706,2.6655,2.6713,2.6738,2.6709,2.692,2.6859,2.6885,2.6962,2.7174,2.7186,2.7197,2.7269,2.7292,2.7311,0,0,0,0,0,0,2.6405,2.6458,2.6438,2.6577,2.6628,2.6679,2.6751,2.673,2.6798,2.6788,2.6788,2.6803,2.6929,2.6958,2.6889,2.7109,2.704,2.7057,2.7086,2.7108,2.7125,2.7116,2.6824,0,0,0,0,0,2.6437,2.6516,2.6558,2.6676,2.6702,2.6722,2.6768,2.6764,2.6818,2.684,2.6874,2.6929,2.7007,2.7059,2.7133,2.728,2.7293,2.7346,2.7363,2.7377,2.7392,2.7471,2.7495,2.7239,2.7239,2.7239,0,0,2.6504,2.6542,2.6592,2.6691,2.673,2.6813,2.6741,2.6832,2.6893,2.6854,2.6971,2.6998,2.7059,2.7194,2.7255,2.7222,2.7465,2.7392,2.7403,2.741,2.7485,2.7509,2.7531,2.7247,2.7246,2.7244,0,0,2.6668,2.6705,2.6807,2.6847,2.6906,2.6918,2.6943,2.6996,2.7012,2.7129,2.7101,2.7174,2.731,2.7354,2.7394,2.7572,2.7547,2.7596,2.7687,2.7764,2.7784,2.7802,2.7865,2.7887,2.7611,2.7611,2.7611,0,2.6745,2.6866,2.6862,2.6955,2.6999,2.6964,2.7067,2.7107,2.7189,2.7221,2.7181,2.7349,2.7388,2.7532,2.7575,2.7609,2.7637,2.759,2.7781,2.7799,2.7815,2.7876,2.7899,2.7616,2.7616,2.7615,2.7615,0,2.6957,2.7042,2.7117,2.7194,2.7247,2.7344,2.7356,2.7409,2.74,2.7417,2.7536,2.7581,2.7663,2.7697,2.769,2.784,2.7817,2.778,2.771,2.7845,2.7902,2.7925,2.7624,2.7622,2.7621,2.7619,0,0,2.7173,2.7243,2.7271,2.7305,2.7367,2.7433,2.7528,2.7607,2.7653,2.771,2.779,2.7904,2.7869,2.7914,2.7912,2.7979,2.8116,2.7933,2.7935,2.7966,2.8284,2.8312,2.8338,2.81,2.8104,2.8108,2.8278,0,2.7341,2.7507,2.7505,2.7659,2.7737,2.7704,2.7787,2.7835,2.7852,2.7922,2.7941,2.8022,2.797,2.7997,2.8062,2.8086,2.818,2.8074,2.8176,2.8179,2.8162,2.8368,2.8398,2.8557,2.83,2.8304,2.8307,0,2.756,2.7621,2.7783,2.7831,2.7864,2.7939,2.8009,2.8076,2.8129,2.8136,2.8186,2.8172,2.827,2.8196,2.8331,2.8258,2.83,2.8318,2.8324,2.8334,2.8252,2.8384,2.8608,2.8632,2.8342,2.8339,2.8337,0,2.7701,2.7824,2.7935,2.7965,2.8025,2.8078,2.8106,2.8153,2.82,2.8262,2.8292,2.8366,2.8406,2.8464,2.847,2.8416,2.8605,2.8533,2.8615,2.8615,2.8658,2.8655,2.8892,2.8684,2.8683,2.8683,2.8682,0,2.7889,2.7989,2.7999,2.8068,2.8179,2.8175,2.8286,2.8308,2.8351,2.8424,2.8401,2.847,2.8475,2.8546,2.8552,2.8662,2.8681,2.869,2.8691,2.8693,2.8692,2.872,2.871,2.8689,2.8688,2.8687,2.8686,0,2.8065,2.8076,2.8195,2.8241,2.8254,2.8334,2.8373,2.8439,2.8453,2.8546,2.8568,2.8591,2.8674,2.8685,2.8783,2.8787,2.8919,2.8908,2.8901,2.8899,2.8981,2.8973,2.9245,2.928,2.9049,2.9051,2.9053,0,2.8185,2.8261,2.8313,2.836,2.8389,2.8465,2.8511,2.8511,2.856,2.8625,2.8683,2.8763,2.8826,2.896,2.8986,2.906,2.9051,2.9141,2.9062,2.9061,2.9052,2.9048,2.9055,2.9157,2.9159,2.9161,2.9163,0,2.8397,2.8398,2.8465,2.8533,2.8589,2.8644,2.8695,2.8735,2.8741,2.8798,2.8881,2.893,2.9028,2.9107,2.918,2.9209,2.9188,2.9187,2.921,2.9213,2.9206,2.9211,2.8942,2.9181,2.9179,2.9178,2.9177,2.9176,2.8549,2.8614,2.866,2.8735,2.8773,2.8821,2.8885,2.8905,2.8974,2.9053,2.9048,2.914,2.9189,2.9284,2.9318,2.939,2.9361,2.9394,2.9403,2.9411,2.9419,2.9193,2.9403,2.9403,2.9402,2.9402,2.9401,0,2.8759,2.8786,2.8855,2.8926,2.8986,2.8957,2.9012,2.9064,2.9144,2.9191,2.9253,2.9348,2.9424,2.9455,2.953,2.9582,2.9574,2.9602,2.9598,2.9605,2.9441,2.9413,2.9607,2.9607,2.9607,2.9607,2.9607,2.9607,2.8875,2.8983,2.8989,2.9116,2.9143,2.9231,2.9264,2.9308,2.9346,2.9452,2.9515,2.9533,2.9574,2.9651,2.972,2.9727,2.9756,2.9788,2.9791,2.9637,2.9617,2.9597,2.9571,2.9794,2.9795,2.9949,2.995,2.9952]}]]